Total_Precipitation_Accumulation
0.23 0.29 0.44 0.38 0.21 0.20 0.33 0.25 0.23 0.11 0.11 0.13 0.14 0.18 0.18 0.15 0.11 0.08 0.06 0.05 0.05 0.06 0.05 0.06 0.07 0.08 0.09 0.11 0.15 0.18 0.19 0.18 0.17 0.18 0.18 0.18 0.16 0.14 0.12 0.11 0.09 0.08 0.09 0.10
0.29 0.27 0.38 0.30 0.15 0.13 0.14 0.11 0.11 0.09 0.12 0.12 0.16 0.21 0.24 0.20 0.13 0.07 0.05 0.04 0.04 0.04 0.04 0.04 0.06 0.09 0.12 0.16 0.22 0.27 0.27 0.23 0.20 0.19 0.18 0.17 0.15 0.14 0.12 0.10 0.09 0.08 0.09 0.10
0.48 0.24 0.28 0.24 0.13 0.12 0.11 0.08 0.09 0.12 0.12 0.12 0.20 0.24 0.21 0.16 0.10 0.06 0.05 0.04 0.04 0.03 0.03 0.03 0.06 0.13 0.20 0.25 0.31 0.33 0.36 0.33 0.28 0.25 0.22 0.18 0.16 0.17 0.19 0.20 0.20 0.20 0.21 0.22
0.59 0.38 0.37 0.24 0.17 0.15 0.12 0.08 0.06 0.07 0.06 0.08 0.13 0.15 0.13 0.10 0.08 0.05 0.03 0.03 0.03 0.03 0.03 0.04 0.07 0.15 0.23 0.29 0.40 0.41 0.41 0.40 0.39 0.39 0.39 0.39 0.38 0.39 0.40 0.39 0.40 0.42 0.44 0.45
0.41 0.32 0.17 0.09 0.10 0.12 0.12 0.10 0.05 0.04 0.04 0.03 0.06 0.12 0.16 0.13 0.10 0.07 0.04 0.02 0.02 0.02 0.03 0.04 0.07 0.13 0.21 0.33 0.47 0.56 0.59 0.58 0.58 0.61 0.65 0.69 0.71 0.69 0.69 0.70 0.69 0.66 0.63 0.57
0.27 0.22 0.09 0.04 0.02 0.03 0.05 0.08 0.02 0.02 0.02 0.02 0.04 0.09 0.16 0.17 0.13 0.11 0.09 0.07 0.05 0.05 0.06 0.09 0.12 0.18 0.30 0.46 0.60 0.69 0.71 0.73 0.76 0.80 0.85 0.82 0.80 0.77 0.69 0.63 0.61 0.59 0.57 0.53
0.21 0.19 0.04 0.01 0.00 0.01 0.05 0.08 0.02 0.01 0.01 0.01 0.02 0.05 0.06 0.11 0.15 0.14 0.15 0.17 0.17 0.18 0.20 0.22 0.25 0.34 0.47 0.58 0.66 0.69 0.69 0.69 0.71 0.68 0.67 0.62 0.60 0.57 0.51 0.45 0.39 0.34 0.30 0.26
0.09 0.13 0.06 0.01 0.01 0.02 0.03 0.01 0.01 0.01 0.01 0.02 0.02 0.02 0.03 0.04 0.08 0.12 0.16 0.22 0.29 0.34 0.37 0.37 0.40 0.46 0.52 0.54 0.54 0.52 0.49 0.47 0.43 0.38 0.32 0.29 0.28 0.28 0.25 0.22 0.19 0.15 0.12 0.10
0.05 0.07 0.03 0.01 0.01 0.02 0.01 0.02 0.01 0.01 0.01 0.02 0.02 0.02 0.02 0.02 0.03 0.05 0.07 0.09 0.14 0.20 0.24 0.25 0.25 0.27 0.29 0.26 0.23 0.19 0.16 0.14 0.13 0.10 0.09 0.07 0.06 0.06 0.07 0.07 0.07 0.07 0.06 0.06
0.04 0.04 0.02 0.02 0.02 0.02 0.02 0.02 0.02 0.02 0.03 0.03 0.03 0.03 0.03 0.02 0.02 0.03 0.03 0.03 0.04 0.06 0.07 0.07 0.08 0.08 0.09 0.07 0.05 0.04 0.03 0.03 0.03 0.03 0.03 0.03 0.03 0.03 0.04 0.05 0.05 0.05 0.05 0.04
0.04 0.03 0.02 0.02 0.02 0.01 0.01 0.01 0.02 0.02 0.02 0.03 0.04 0.04 0.04 0.04 0.03 0.03 0.03 0.03 0.04 0.04 0.04 0.04 0.04 0.05 0.05 0.05 0.04 0.04 0.03 0.03 0.03 0.03 0.04 0.03 0.03 0.04 0.05 0.05 0.06 0.07 0.07 0.07
0.06 0.03 0.02 0.01 0.01 0.01 0.01 0.01 0.01 0.02 0.02 0.02 0.02 0.04 0.03 0.03 0.04 0.04 0.05 0.04 0.04 0.04 0.05 0.06 0.06 0.07 0.07 0.07 0.08 0.07 0.07 0.06 0.06 0.06 0.07 0.07 0.07 0.07 0.08 0.08 0.10 0.10 0.10 0.09
0.03 0.02 0.02 0.01 0.00 0.00 0.01 0.01 0.02 0.01 0.01 0.01 0.01 0.01 0.02 0.03 0.04 0.04 0.05 0.06 0.06 0.06 0.07 0.06 0.06 0.07 0.08 0.10 0.11 0.12 0.12 0.13 0.13 0.13 0.12 0.11 0.11 0.11 0.11 0.12 0.14 0.13 0.13 0.13
0.01 0.02 0.02 0.01 0.01 0.01 0.01 0.02 0.02 0.01 0.01 0.01 0.01 0.01 0.01 0.01 0.03 0.04 0.05 0.06 0.06 0.06 0.06 0.06 0.07 0.07 0.08 0.09 0.10 0.11 0.13 0.17 0.19 0.18 0.19 0.19 0.18 0.17 0.17 0.16 0.16 0.15 0.15 0.17
0.01 0.02 0.03 0.04 0.03 0.02 0.02 0.02 0.02 0.02 0.03 0.02 0.03 0.02 0.02 0.02 0.02 0.03 0.04 0.04 0.05 0.06 0.05 0.06 0.06 0.07 0.08 0.09 0.10 0.11 0.12 0.14 0.17 0.19 0.21 0.22 0.21 0.21 0.20 0.18 0.16 0.15 0.15 0.18
0.04 0.03 0.03 0.04 0.06 0.06 0.05 0.04 0.04 0.04 0.04 0.03 0.04 0.04 0.04 0.03 0.03 0.03 0.03 0.03 0.05 0.05 0.06 0.07 0.07 0.08 0.09 0.10 0.11 0.12 0.13 0.17 0.19 0.18 0.19 0.21 0.22 0.21 0.19 0.18 0.17 0.15 0.14 0.15
0.11 0.09 0.09 0.10 0.08 0.09 0.08 0.07 0.06 0.05 0.05 0.05 0.05 0.04 0.04 0.04 0.03 0.03 0.04 0.04 0.04 0.05 0.06 0.08 0.09 0.10 0.10 0.11 0.13 0.14 0.15 0.18 0.23 0.20 0.18 0.19 0.21 0.21 0.20 0.18 0.17 0.16 0.14 0.17
0.13 0.14 0.14 0.17 0.17 0.15 0.13 0.11 0.09 0.08 0.07 0.07 0.07 0.06 0.05 0.05 0.05 0.04 0.05 0.05 0.05 0.06 0.07 0.08 0.09 0.10 0.10 0.11 0.14 0.15 0.16 0.17 0.19 0.20 0.20 0.22 0.24 0.23 0.23 0.22 0.20 0.19 0.18 0.22
0.13 0.13 0.13 0.15 0.18 0.18 0.17 0.15 0.14 0.13 0.11 0.10 0.09 0.08 0.08 0.07 0.07 0.06 0.06 0.07 0.07 0.08 0.07 0.08 0.11 0.11 0.11 0.12 0.17 0.17 0.17 0.18 0.19 0.21 0.23 0.27 0.29 0.25 0.25 0.24 0.23 0.24 0.24 0.24
0.15 0.15 0.15 0.17 0.19 0.19 0.19 0.18 0.17 0.17 0.16 0.14 0.13 0.11 0.10 0.10 0.10 0.09 0.09 0.09 0.09 0.10 0.11 0.12 0.13 0.12 0.12 0.13 0.18 0.18 0.18 0.19 0.21 0.22 0.24 0.26 0.26 0.25 0.24 0.24 0.24 0.25 0.24 0.23
0.19 0.17 0.16 0.17 0.19 0.20 0.19 0.19 0.19 0.20 0.20 0.18 0.17 0.16 0.14 0.13 0.14 0.14 0.13 0.12 0.10 0.11 0.12 0.13 0.13 0.14 0.16 0.19 0.22 0.20 0.21 0.22 0.22 0.23 0.24 0.25 0.25 0.24 0.24 0.23 0.23 0.23 0.22 0.22
0.18 0.18 0.17 0.17 0.19 0.21 0.21 0.20 0.19 0.20 0.19 0.18 0.18 0.17 0.16 0.15 0.14 0.13 0.13 0.14 0.13 0.15 0.16 0.14 0.14 0.19 0.23 0.25 0.23 0.22 0.23 0.24 0.25 0.26 0.26 0.24 0.24 0.23 0.22 0.22 0.22 0.21 0.21 0.20
0.16 0.17 0.16 0.15 0.15 0.15 0.15 0.15 0.16 0.17 0.18 0.18 0.19 0.18 0.18 0.16 0.16 0.16 0.15 0.14 0.14 0.16 0.17 0.17 0.20 0.25 0.27 0.25 0.24 0.26 0.28 0.28 0.28 0.27 0.26 0.25 0.24 0.23 0.23 0.22 0.21 0.20 0.19 0.18
0.10 0.10 0.11 0.10 0.10 0.11 0.12 0.13 0.13 0.14 0.15 0.15 0.15 0.15 0.15 0.14 0.13 0.12 0.13 0.14 0.16 0.19 0.19 0.20 0.23 0.25 0.25 0.24 0.26 0.29 0.30 0.30 0.29 0.28 0.27 0.25 0.23 0.22 0.21 0.20 0.19 0.18 0.17 0.16
0.07 0.07 0.06 0.06 0.07 0.07 0.07 0.08 0.09 0.10 0.12 0.12 0.12 0.12 0.12 0.12 0.14 0.13 0.12 0.12 0.14 0.17 0.17 0.18 0.21 0.22 0.22 0.23 0.25 0.27 0.27 0.28 0.28 0.27 0.25 0.24 0.22 0.21 0.20 0.19 0.18 0.17 0.16 0.15
0.06 0.05 0.05 0.05 0.05 0.05 0.06 0.06 0.06 0.06 0.08 0.10 0.11 0.11 0.12 0.13 0.13 0.13 0.13 0.13 0.14 0.16 0.17 0.16 0.17 0.19 0.21 0.22 0.23 0.23 0.23 0.23 0.23 0.22 0.21 0.21 0.20 0.18 0.17 0.16 0.15 0.15 0.14 0.13
0.04 0.04 0.04 0.04 0.04 0.04 0.04 0.05 0.05 0.06 0.06 0.07 0.09 0.10 0.12 0.12 0.12 0.12 0.12 0.13 0.14 0.15 0.15 0.15 0.15 0.17 0.18 0.19 0.19 0.19 0.18 0.18 0.17 0.17 0.17 0.17 0.16 0.15 0.14 0.14 0.14 0.13 0.13 0.12